Regional Weather Roundup
Issued by NWS

Home | Current Version | Previous Version | Text Only | Print | Product List | Glossary On
Versions: 1 2 3 4 5 6 7 8 9 10 11 12 13 14 15 16 17 18 19 20 21 22 23 24 25 26 27 28 29 30 31 32 33 34 35 36 37 38 39 40 41 42 43 44 45 46 47 48 49 50
000
ASUS43 KTOP 030908
RWRKS

WEATHER ROUNDUP FOR KANSAS
NATIONAL WEATHER SERVICE GOODLAND KS
300 AM CST TUE MAR 03 2015

NOTE:  "FAIR" INDICATES FEW OR NO CLOUDS BELOW 12,000 FEET WITH NO
SIGNIFICANT WEATHER AND/OR OBSTRUCTIONS TO VISIBILITY.

KSZ001>006-013>018-027>032-041>047-031000-
NORTHWEST KANSAS

CITY           SKY/WX    TMP DP  RH WIND       PRES   REMARKS
GOODLAND       CLOUDY    37  31  78 W18       29.56S WCI  27
HAYS           CLOUDY    37  27  65 S22       29.60F WCI  27
HILL CITY      CLOUDY    38  32  79 NW10      29.61R WCI  31
RUSSELL        MOCLDY    35  29  78 S26       29.59F WCI  22
$$

KSZ061>065-074>080-084>089-031000-
SOUTHWEST KANSAS

CITY           SKY/WX    TMP DP  RH WIND       PRES   REMARKS
DODGE CITY     MOCLDY    36  30  79 SW23G31   29.66F WCI  24
ELKHART          N/A     38  30  73 SW16        N/A  WCI  29
GARDEN CITY    CLOUDY    35  33  92 SW16      29.63S WCI  25
GREAT BEND     FAIR      36  27  69 S23G30    29.66F WCI  24
LIBERAL        MOCLDY    36  30  80 SW12      29.73R WCI  27
PRATT          MOCLDY    32  32 100 S23G30    29.72F WCI  19
$$

KSZ066>073-081>083-090>101-031000-
SOUTHEAST KANSAS

CITY           SKY/WX    TMP DP  RH WIND       PRES   REMARKS
CHANUTE        CLOUDY    35  35 100 S16       29.91F FOG     WCI  25
COFFEYVILLE    CLOUDY    36  35  96 S17G26    29.93F FOG     WCI  26
HUTCHINSON     CLOUDY    36  31  82 S23G32    29.74F WCI  24
MEDICINE LODGE   N/A     34  31  88 S12       29.78F WCI  25
NEWTON         CLOUDY    34  28  80 S32       29.76F WCI  20
PARSONS        CLOUDY    37  36  96 S12G20    29.93F FOG     WCI  29
WICHITA INTL   FOG       34  32  92 S21       29.81F VSB 3/4 WCI  22
WICHITA JABRA  CLOUDY    34  33  96 S22G36    29.79F FOG     WCI  22
WICHITA MCCONL CLOUDY    34  32  93 S20G28    29.81F FOG     WCI  22
WINFIELD       CLOUDY    36  35  96 S15       29.87F FOG     WCI  27
$$

KSZ007>012-019>026-033>040-048>060-102>105-031000-
NORTHEAST KANSAS

CITY           SKY/WX    TMP DP  RH WIND       PRES   REMARKS
CONCORDIA      CLOUDY    33  31  92 S14G21    29.66F FOG     WCI  23
EMPORIA        CLOUDY    33  33 100 S18G28    29.80F FOG     WCI  22
LAWRENCE       CLOUDY    34  32  92 S10       29.84F FOG     WCI  26
MANHATTAN      CLOUDY    36  34  92 S13       29.77F WCI  27
MARYSVILLE     CLOUDY    32  32 100 S13G20    29.71F FOG     WCI  22
OLATHE IND     CLOUDY    33  32  96 S15       29.86F FOG     WCI  23
OLATHE EXE     CLOUDY    33  32  96 S14       29.84F FOG     WCI  23
SALINA         CLOUDY    36  31  82 S17G23    29.70F WCI  26
TOPEKA BILLARD CLOUDY    35  33  92 S10       29.83F FOG     WCI  27
TOPEKA FORBES  CLOUDY    35  33  92 S16       29.80F FOG     WCI  25
$$



USA.gov is the U.S. government's official web portal to all federal, state and local government web resources and services.